Hors Challenge

les 4 cimes du pays de herve - Battice (6.00 km)

dimanche 10 novembre 2019

Vous pouvez trouver Le classement original sur : http://www.lesquatrecimes.be
 
LES 4 CIMES DU PAYS DE HERVE - BATTICE
DISTANCE : 6.00 km
dimanche 10 novembre 2019
 
Place dos NOM Catégorie Pl/cat temps temps/km Vitesse
01:00:00              
1 6051 SCHELVIS HERVE SENH 1 0:24:56 04:09 14.44
2 6075 DELOYER LOÏC JUNM 1 0:25:49 04:18 13.94
3 6055 HURARD GERALD SENH 2 0:26:17 04:23 13.70
4 6062 FRISSCHEN REMI JUNM 2 0:26:43 04:27 13.47
5 6057 SCHELVIS SYDNEY SENH 3 0:27:26 04:34 13.12
6 6066 BOVY BASILE JUNM 3 0:27:28 04:35 13.11
7 6079 DELOYER LAURENT VET1M 1 0:27:29 04:35 13.10
8 6022 JAMINON CHRISTIAN SENH 4 0:28:36 04:46 12.59
9 6056 BYNENS NICOLAS VET3H 1 0:29:02 04:50 12.40
10 6078 DELOYER NATHAN JUNM 4 0:30:31 05:05 11.80
11 6080 DELMOITIEZ VICTOR JUNM 5 0:31:06 05:11 11.58
12 6085 DELOYER THOMAS SENM 1 0:31:15 05:13 11.52
13 6076 GIRRETZ EMY JUNF 1 0:31:20 05:13 11.49
14 6071 DELOYER ROAN JUNM 6 0:31:48 05:18 11.32
15 6008 VERMEULEN CHRISTOPHER SENH 5 0:32:05 05:21 11.22
16 6034 PIRKLOVA LUCIE JUNF 2 0:32:14 05:22 11.17
17 6026 LAMBOT LUCIE JUNF 3 0:32:21 05:24 11.13
18 6040 SLIVA MIKULAS JUNH 1 0:32:33 05:26 11.06
19 6015 LARUE PHILIPPE VET2H 1 0:32:57 05:30 10.93
20 6014 MAWET PASCAL VET2H 2 0:33:00 05:30 10.91
21 6005 BENARD RAPHAEL JUNH 2 0:33:13 05:32 10.84
22 6063 RADERMECKER BENOÎT VET2M 1 0:33:55 05:39 10.61
23 6019 DE BOECK BENOIT VET1H 1 0:34:41 05:47 10.38
24 6039 SLIVOVA EMMA JUNF 4 0:34:44 05:47 10.36
25 6059 WASSENAER BRIGITTE VET2F 1 0:35:23 05:54 10.17
26 6044 MERTES ISABELLE VET1F 1 0:35:37 05:56 10.11
27 6061 NATALIS MICHÈLE VET2F 2 0:36:02 06:00 9.99
28 6027 LAMBOT ELINE JUNF 5 0:36:37 06:06 9.83
29 6065 DENIS FRANÇOIS SENM 2 0:36:48 06:08 9.78
30 6029 DORTU DIDIER VET1H 2 0:36:50 06:08 9.77
31 6013 DUPLICY ARNAUD SENH 6 0:37:11 06:12 9.68
32 6049 ARCHEN CÉLINE SENF 1 0:37:57 06:20 9.49
33 6090 DAENEN GODELINE VET2F 3 0:38:43 06:27 9.30
34 6054 HAMERS HARRY VET3H 2 0:39:28 06:35 9.12
35 6084 DELOYER COLINE JUNF 6 0:39:36 06:36 9.09
36 6021 MERTENS CAROLINE SENF 2 0:39:41 06:37 9.07
37 6091 HENRY PHILIPPE VET2M 2 0:39:44 06:37 9.06
38 6072 DELOYER OLIVIER SENM 3 0:40:20 06:43 8.93
39 6077 VANAUBEL MARILYN SENF 3 0:40:34 06:46 8.87
40 6024 DORTU RACHEL SENF 4 0:40:50 06:48 8.82
41 6086 THYRION CAMILLE SENF 5 0:40:54 06:49 8.80
42 6089 GILTAN ALOÏSE SENF 6 0:41:09 06:51 8.75
43 6053 VAN DER STICHELEN REMI JUNH 3 0:41:19 06:53 8.71
44 6060 RADERMECKER PAULINE SENF 7 0:41:24 06:54 8.70
45 6092 HENSGENS MAARTJE SENF 8 0:42:29 07:05 8.47
46 6093 HENSGENS JAN VET3M 1 0:42:34 07:06 8.46
47 6087 LIMBOURG CASSANDRA SENF 9 0:43:04 07:11 8.36
48 6064 LAHAYE YVAN VET2M 3 0:43:23 07:14 8.30
49 6020 CHRISTOPOULOS SOPHIE VET1F 2 0:43:27 07:15 8.29
50 6067 DELHEZ LAURA SENF 10 0:43:35 07:16 8.26
51 6025 VAN DER STICHELENT YSALINE SENF 11 0:43:37 07:16 8.25
52 6016 STEINWEG NOA JUNH 4 0:43:45 07:17 8.23
53 6017 STEINWEG EMMA JUNF 7 0:44:02 07:20 8.18
54 6073 HEINS ERIC SENM 4 0:44:12 07:22 8.14
55 6074 HEINS LYDIE JUNF 8 0:44:14 07:22 8.14
56 6083 STEINWEG DIDIER VET1M 2 0:44:18 07:23 8.13
57 6068 BASTAGNE FLORENT JUNM 7 0:44:26 07:24 8.10
58 6069 BASTAGNE JULIE JUNF 9 0:44:28 07:25 8.10
59 6070 BASTAGNE JACQUES VET1M 3 0:44:30 07:25 8.09
60 6018 STEINWEG JULIE SENF 12 0:44:35 07:26 8.07
61 6081 DELOYER NANCY SENF 13 0:44:37 07:26 8.07
62 6004 MAES SOFIE VET2F 4 0:45:20 07:33 7.94
63 6045 BAUMANS FRANCE SENF 14 0:46:06 07:41 7.81
64 6033 LAHAYE MARIE SENF 15 0:46:07 07:41 7.81
65 6088 LOYAT VÉRONIQUE VET1F 3 0:49:30 08:15 7.27
66 6052 KUIPERS MIES VET3F 1 0:52:20 08:43 6.88
67 6050 SCHELVIS STERRE SENF 16 0:52:22 08:44 6.87